Location: Castiglione Fibocchi
(43.5333°N, 11.7667°E)
Time: 16:47:35
(UTC+00:00)

Cosmos 2297 Rocket - Pass Details

Date: 15 August 2020
Orbit: 838 x 845 km, 71.0° (Epoch: 18 September)

Event Time Altitude Azimuth Distance (km) Brightness Sun altitude
Exits shadow 00:29:15 30° 302° (WNW) 1,479 3.5 -30.2°
Maximum altitude 00:29:30 30° 306° (NW) 1,476 3.5 -30.2°
Drops below altitude 10° 00:34:26 10° 7° (N) 2,467 5.5 -29.9°
Sets 00:37:12 0° 18° (NNE) 3,407 6.6 -29.7°
